| time (UTC) | temp F | wind direction | speed MPH | gust MPH | rain 1hr in | rain 24hr in | rain mn in | humidity % | barometer mb |
| 20260504080305 | 61 | 84 | 1.0 | 4.0 | 0.00 | 0.00 | 0.00 | 77 | 1013.0 |
| 20260504080205 | 61 | 84 | 1.0 | 4.0 | 0.00 | 0.00 | 0.00 | 77 | 1013.0 |
| 20260504070303 | 62 | 84 | 1.0 | 4.0 | 0.00 | 0.00 | 0.00 | 77 | 1013.0 |
| 20260504070203 | 62 | 84 | 1.0 | 4.0 | 0.00 | 0.00 | 0.00 | 77 | 1013.0 |
| 20260504060202 | 62 | 84 | 1.0 | 4.0 | 0.00 | 0.00 | 0.00 | 77 | 1014.0 |
| 20260504050301 | 63 | 84 | 1.0 | 4.0 | 0.00 | 0.00 | 0.00 | 77 | 1015.0 |
| 20260504050200 | 63 | 84 | 1.0 | 4.0 | 0.00 | 0.00 | 0.00 | 77 | 1015.0 |
| 20260504044300 | 63 | 84 | 1.0 | 4.0 | 0.00 | 0.00 | 0.00 | 77 | 1015.0 |
| 20260504044200 | 63 | 84 | 1.0 | 4.0 | 0.00 | 0.00 | 0.00 | 77 | 1015.0 |
| 20260504042259 | 63 | 84 | 1.0 | 4.0 | 0.00 | 0.00 | 0.00 | 77 | 1014.0 |
| 20260504042159 | 63 | 84 | 1.0 | 4.0 | 0.00 | 0.00 | 0.00 | 77 | 1014.0 |
| 20260504040259 | 64 | 84 | 1.0 | 4.0 | 0.00 | 0.00 | 0.00 | 77 | 1014.0 |
| 20260504040159 | 64 | 84 | 1.0 | 4.0 | 0.00 | 0.00 | 0.00 | 77 | 1014.0 |
| 20260504034258 | 64 | 84 | 1.0 | 4.0 | 0.00 | 0.00 | 0.00 | 77 | 1014.0 |
| 20260504034158 | 64 | 84 | 1.0 | 4.0 | 0.00 | 0.00 | 0.00 | 77 | 1014.0 |
| 20260504032258 | 64 | 84 | 1.0 | 4.0 | 0.00 | 0.00 | 0.00 | 77 | 1013.0 |
| 20260504030257 | 64 | 84 | 1.0 | 4.0 | 0.00 | 0.00 | 0.00 | 77 | 1014.0 |
| 20260504030157 | 64 | 84 | 1.0 | 4.0 | 0.00 | 0.00 | 0.00 | 77 | 1014.0 |
| 20260504024257 | 64 | 84 | 1.0 | 4.0 | 0.00 | 0.00 | 0.00 | 77 | 1014.0 |
| 20260504024157 | 64 | 84 | 1.0 | 4.0 | 0.00 | 0.00 | 0.00 | 77 | 1014.0 |
| 20260504022257 | 64 | 84 | 1.0 | 4.0 | 0.00 | 0.00 | 0.00 | 77 | 1012.0 |
| 20260504022156 | 64 | 84 | 1.0 | 4.0 | 0.00 | 0.00 | 0.00 | 77 | 1012.0 |
| 20260504020256 | 64 | 84 | 1.0 | 4.0 | 0.00 | 0.00 | 0.00 | 77 | 1013.0 |
| 20260504020156 | 64 | 84 | 1.0 | 4.0 | 0.00 | 0.00 | 0.00 | 77 | 1013.0 |
| 20260504014255 | 64 | 84 | 1.0 | 4.0 | 0.00 | 0.00 | 0.00 | 77 | 1013.0 |
| 20260504014155 | 64 | 84 | 1.0 | 4.0 | 0.00 | 0.00 | 0.00 | 77 | 1013.0 |
| 20260504012255 | 65 | 84 | 1.0 | 4.0 | 0.00 | 0.00 | 0.00 | 77 | 1012.0 |
| 20260504012155 | 65 | 84 | 1.0 | 4.0 | 0.00 | 0.00 | 0.00 | 77 | 1012.0 |
| 20260504010255 | 66 | 84 | 1.0 | 4.0 | 0.01 | 0.00 | 0.00 | 77 | 1013.0 |
| 20260504010154 | 66 | 84 | 1.0 | 4.0 | 0.01 | 0.00 | 0.00 | 77 | 1013.0 |
| 20260504004254 | 66 | 84 | 1.0 | 4.0 | 0.06 | 0.00 | 0.00 | 77 | 1013.0 |
| 20260504004154 | 66 | 84 | 1.0 | 4.0 | 0.06 | 0.00 | 0.00 | 77 | 1013.0 |
| 20260504002253 | 66 | 84 | 1.0 | 4.0 | 0.00 | 0.00 | 0.00 | 77 | 1011.0 |
| 20260504002153 | 66 | 84 | 1.0 | 4.0 | 0.00 | 0.00 | 0.00 | 77 | 1011.0 |
| 20260504000253 | 66 | 84 | 1.0 | 4.0 | 0.00 | 0.00 | 0.00 | 77 | 1012.0 |
| 20260504000153 | 66 | 84 | 1.0 | 4.0 | 0.00 | 0.00 | 0.00 | 77 | 1012.0 |
| 20260503234252 | 67 | 84 | 1.0 | 4.0 | 0.00 | 0.00 | 0.00 | 77 | 1012.0 |
| 20260503234152 | 67 | 84 | 1.0 | 4.0 | 0.00 | 0.00 | 0.00 | 77 | 1012.0 |
| 20260503232252 | 68 | 84 | 1.0 | 4.0 | 0.00 | 0.00 | 0.00 | 76 | 1010.0 |
| 20260503232152 | 68 | 84 | 1.0 | 4.0 | 0.00 | 0.00 | 0.00 | 76 | 1010.0 |
| 20260503230251 | 68 | 84 | 1.0 | 4.0 | 0.01 | 0.00 | 0.00 | 76 | 1012.0 |
| 20260503230151 | 68 | 84 | 1.0 | 4.0 | 0.01 | 0.00 | 0.00 | 76 | 1012.0 |
| 20260503224251 | 68 | 84 | 1.0 | 4.0 | 0.02 | 0.00 | 0.00 | 76 | 1012.0 |
| 20260503224151 | 68 | 84 | 1.0 | 4.0 | 0.02 | 0.00 | 0.00 | 76 | 1012.0 |
| 20260503222251 | 69 | 84 | 1.0 | 4.0 | 0.02 | 0.00 | 0.00 | 75 | 1010.0 |
| 20260503222150 | 69 | 84 | 1.0 | 4.0 | 0.02 | 0.00 | 0.00 | 75 | 1010.0 |
| 20260503220250 | 70 | 84 | 1.0 | 4.0 | 0.07 | 0.00 | 0.00 | 73 | 1011.0 |
| 20260503220150 | 70 | 84 | 1.0 | 4.0 | 0.07 | 0.00 | 0.00 | 73 | 1011.0 |
| 20260503214250 | 70 | 84 | 1.0 | 4.0 | 0.06 | 0.00 | 0.00 | 73 | 1011.0 |
| 20260503214149 | 70 | 84 | 1.0 | 4.0 | 0.06 | 0.00 | 0.00 | 73 | 1011.0 |
| 20260503212249 | 70 | 84 | 1.0 | 4.0 | 0.09 | 0.00 | 0.00 | 73 | 1010.0 |
| 20260503212149 | 70 | 84 | 1.0 | 4.0 | 0.09 | 0.00 | 0.00 | 73 | 1010.0 |
| 20260503210249 | 70 | 84 | 1.0 | 4.0 | 0.04 | 0.00 | 0.00 | 73 | 1011.0 |
| 20260503210148 | 70 | 84 | 1.0 | 4.0 | 0.04 | 0.00 | 0.00 | 73 | 1011.0 |
| 20260503204248 | 70 | 84 | 1.0 | 4.0 | 0.06 | 0.00 | 0.00 | 73 | 1011.0 |
| 20260503204148 | 70 | 84 | 1.0 | 4.0 | 0.06 | 0.00 | 0.00 | 73 | 1011.0 |
| 20260503202248 | 70 | 84 | 1.0 | 4.0 | 0.00 | 0.00 | 0.00 | 73 | 1010.0 |
| 20260503202147 | 70 | 84 | 1.0 | 4.0 | 0.00 | 0.00 | 0.00 | 73 | 1010.0 |
| 20260503200247 | 70 | 84 | 1.0 | 4.0 | 0.00 | 0.00 | 0.00 | 73 | 1012.0 |
| 20260503200147 | 70 | 84 | 1.0 | 4.0 | 0.00 | 0.00 | 0.00 | 73 | 1012.0 |
| 20260503194247 | 70 | 84 | 1.0 | 4.0 | 0.01 | 0.00 | 0.00 | 73 | 1012.0 |
| 20260503194147 | 70 | 84 | 1.0 | 4.0 | 0.01 | 0.00 | 0.00 | 73 | 1012.0 |
| 20260503192247 | 70 | 84 | 2.0 | 4.0 | 0.00 | 0.00 | 0.00 | 73 | 1012.0 |
| 20260503192146 | 70 | 84 | 2.0 | 4.0 | 0.00 | 0.00 | 0.00 | 73 | 1012.0 |
| 20260503190246 | 69 | 84 | 2.0 | 4.0 | 0.00 | 0.00 | 0.00 | 74 | 1012.0 |
| 20260503190146 | 69 | 84 | 2.0 | 4.0 | 0.00 | 0.00 | 0.00 | 74 | 1012.0 |
| 20260503184245 | 69 | 84 | 2.0 | 4.0 | 0.00 | 0.00 | 0.00 | 74 | 1012.0 |
| 20260503184145 | 69 | 84 | 2.0 | 4.0 | 0.00 | 0.00 | 0.00 | 74 | 1012.0 |
| 20260503182245 | 67 | 56 | 3.0 | 6.0 | 0.00 | 0.00 | 0.00 | 75 | 1012.0 |
| 20260503182145 | 67 | 56 | 3.0 | 6.0 | 0.00 | 0.00 | 0.00 | 75 | 1012.0 |
| 20260503180244 | 67 | 56 | 3.0 | 6.0 | 0.00 | 0.00 | 0.00 | 75 | 1013.0 |
| 20260503180144 | 67 | 56 | 3.0 | 6.0 | 0.00 | 0.00 | 0.00 | 75 | 1013.0 |
| 20260503174244 | 65 | 56 | 3.0 | 6.0 | 0.00 | 0.00 | 0.00 | 75 | 1013.0 |
| 20260503174144 | 65 | 56 | 3.0 | 6.0 | 0.00 | 0.00 | 0.00 | 75 | 1013.0 |
| 20260503172244 | 66 | 59 | 3.0 | 6.0 | 0.00 | 0.00 | 0.00 | 75 | 1013.0 |
| 20260503172143 | 66 | 59 | 3.0 | 6.0 | 0.00 | 0.00 | 0.00 | 75 | 1013.0 |
| 20260503170243 | 65 | 59 | 3.0 | 6.0 | 0.00 | 0.00 | 0.00 | 77 | 1014.0 |
| 20260503170143 | 65 | 59 | 3.0 | 6.0 | 0.00 | 0.00 | 0.00 | 77 | 1014.0 |
| 20260503160141 | 65 | 60 | 4.0 | 6.0 | 0.00 | 0.00 | 0.00 | 73 | 1014.0 |
| 20260503150240 | 65 | 57 | 3.0 | 5.0 | 0.00 | 0.00 | 0.00 | 72 | 1014.0 |
| 20260503150140 | 65 | 57 | 3.0 | 5.0 | 0.00 | 0.00 | 0.00 | 72 | 1014.0 |
| 20260503140238 | 64 | 31 | 4.0 | 6.0 | 0.00 | 0.00 | 0.00 | 79 | 1014.0 |
| 20260503140138 | 64 | 31 | 4.0 | 6.0 | 0.00 | 0.00 | 0.00 | 79 | 1014.0 |
| 20260503130237 | 62 | 9 | 4.0 | 8.0 | 0.00 | 0.00 | 0.00 | 91 | 1013.0 |
| 20260503130137 | 62 | 9 | 4.0 | 8.0 | 0.00 | 0.00 | 0.00 | 91 | 1013.0 |
| 20260503120135 | 61 | 42 | 3.0 | 5.0 | 0.00 | 0.00 | 0.00 | 82 | 1013.0 |
| 20260503110234 | 62 | 42 | 3.0 | 5.0 | 0.00 | 0.00 | 0.00 | 82 | 1013.0 |
| 20260503110134 | 62 | 42 | 3.0 | 5.0 | 0.00 | 0.00 | 0.00 | 82 | 1013.0 |
| 20260503100232 | 62 | 42 | 3.0 | 5.0 | 0.00 | 0.00 | 0.00 | 82 | 1013.0 |
| 20260503100132 | 62 | 42 | 3.0 | 5.0 | 0.00 | 0.00 | 0.00 | 82 | 1013.0 |
| 20260503090230 | 62 | 42 | 3.0 | 5.0 | 0.00 | 0.00 | 0.00 | 82 | 1012.0 |
| 20260503090130 | 62 | 42 | 3.0 | 5.0 | 0.00 | 0.00 | 0.00 | 82 | 1012.0 |